GFSNW_700_spd_210.txt.gz
Wind_Speed
69 66 58 56 61 62 54 53 51 55 48 45 57 61 55 45 36 38 39 35 35 35 30 31 33 32 27 21 16 13 18 17 20 26 28 25 28 29 26 25 19 31 33 45
70 69 63 54 50 58 53 49 48 47 38 52 60 59 55 51 49 32 36 44 42 42 34 31 36 39 37 37 34 25 27 16 11 13 11 13 24 25 23 29 33 41 20 39
67 69 65 59 54 53 49 35 44 47 43 51 58 55 53 54 55 53 50 46 43 36 34 39 42 35 35 38 37 39 38 32 24 21 18 14 18 21 25 30 34 35 44 47
67 72 66 70 62 57 55 54 35 49 44 56 56 54 58 56 50 43 50 54 54 49 46 45 49 48 47 44 38 34 29 34 35 39 34 32 38 40 34 32 38 31 52 41
63 68 65 68 67 69 61 56 59 50 52 44 55 53 61 53 47 50 51 51 47 49 56 55 46 44 47 46 30 27 36 35 31 43 31 31 37 45 39 44 45 45 46 58
64 64 68 68 67 66 67 62 64 62 56 58 44 59 57 48 49 54 52 50 46 53 57 50 51 48 44 36 29 29 33 35 28 38 21 24 31 46 47 48 43 39 44 52
59 59 60 65 65 68 69 71 62 50 54 55 59 63 58 54 51 52 52 46 48 49 50 47 46 45 42 37 37 37 36 35 29 23 14 10 33 26 23 23 25 27 34 38
57 56 56 55 55 56 65 66 61 57 48 55 51 55 55 49 46 47 49 48 48 46 48 41 35 32 33 39 39 41 41 36 24 14 21 27 33 21 13 17 25 18 18 19
50 52 52 52 52 51 52 58 57 51 45 51 58 54 47 49 55 50 51 48 45 44 44 37 22 16 17 11 13 35 38 40 36 19 8 9 9 10 16 25 30 19 20 19
47 48 48 48 49 50 49 50 49 51 50 45 38 38 51 52 48 44 48 48 48 49 44 41 28 19 20 14 16 18 32 41 42 38 27 19 21 16 10 13 9 16 19 24
47 45 45 44 43 44 47 51 49 50 54 49 39 30 37 39 48 51 48 46 49 50 44 36 29 23 27 20 29 27 31 24 28 36 20 17 19 17 19 13 17 22 25 22
45 44 43 41 40 42 43 46 45 43 53 50 59 47 33 29 33 33 41 48 46 44 44 36 26 17 18 32 14 26 22 36 23 22 15 19 10 19 15 20 19 16 17 20
45 43 41 38 39 39 44 44 46 43 46 51 56 57 61 54 50 43 35 42 43 47 48 41 28 17 28 26 28 25 29 16 23 18 22 13 10 17 19 16 18 20 20 22
46 42 38 37 38 39 41 46 46 42 40 49 37 34 45 40 51 53 51 50 46 40 40 42 36 28 24 27 18 28 25 25 21 25 21 12 16 17 20 22 23 25 20 17
47 42 37 34 37 39 39 41 42 40 42 14 34 29 26 33 39 41 41 41 37 37 35 37 26 29 22 25 27 24 22 22 19 19 19 15 18 19 19 18 20 21 20 21
49 47 43 36 38 39 40 36 34 41 39 45 27 16 27 35 27 34 39 37 36 39 39 39 35 30 25 16 17 23 17 21 19 22 22 22 22 21 22 22 20 19 20 20
49 46 42 38 39 40 42 43 43 40 36 35 30 18 20 25 28 29 27 26 29 36 38 37 31 29 22 16 13 9 14 10 12 16 17 17 14 17 22 30 30 29 31 33
44 41 41 38 37 37 40 40 34 34 37 35 25 17 29 36 37 37 37 35 34 33 27 23 16 12 11 12 11 15 18 12 12 17 17 19 22 24 29 31 28 29 28 26
47 45 46 43 44 46 46 39 34 22 37 32 25 29 36 38 38 35 32 27 16 21 13 14 13 13 10 10 12 8 14 16 20 21 23 24 24 27 29 26 20 18 16 16
52 50 44 40 45 46 33 18 18 34 11 24 37 32 36 43 39 27 20 14 12 6 9 10 13 15 17 9 16 21 22 20 21 26 26 22 19 21 21 16 17 16 16 16
47 45 34 27 25 21 19 17 17 19 7 15 30 26 41 37 30 23 9 9 10 8 9 11 5 5 13 18 16 17 17 18 19 17 14 13 15 21 18 16 15 14 13 13
42 39 28 30 27 9 5 9 9 8 10 15 29 34 38 32 28 10 10 8 8 5 13 8 3 13 16 16 16 14 12 11 12 13 15 16 19 19 16 12 13 13 14 14
33 37 24 11 5 6 9 12 9 11 17 33 39 35 35 26 14 11 6 6 5 10 7 6 8 12 13 14 13 12 12 13 13 12 9 8 12 15 12 11 14 14 15 17
18 8 8 5 4 6 8 16 20 26 35 33 31 30 19 18 10 8 6 8 9 7 7 7 13 12 8 10 12 12 11 7 8 9 10 11 13 14 15 16 20 22 22 21
4 4 5 7 10 14 12 16 24 29 33 30 27 21 21 17 7 6 6 9 6 7 6 10 11 6 7 8 11 11 11 11 11 13 15 17 19 20 19 21 22 23 24 25
4 7 18 20 20 23 24 24 27 28 26 25 22 14 8 5 6 5 5 7 5 5 11 8 9 11 11 12 13 15 17 18 20 21 22 23 24 25 25 25 26 28 29 30
7 12 17 18 21 21 19 20 25 26 24 19 9 5 3 8 4 4 6 6 8 7 7 9 10 12 12 15 19 20 20 24 25 26 26 26 27 29 30 32 34 37 38 36

GFSNW_700_spd_216.txt.gz
Wind_Speed
74 70 62 55 60 57 54 58 61 62 41 59 67 74 68 48 40 41 36 36 34 34 28 27 28 30 28 18 29 26 26 29 24 25 27 25 27 33 30 21 13 22 22 42
76 74 69 65 63 61 64 57 60 60 58 61 68 67 61 60 46 40 47 49 39 39 38 34 34 35 36 34 37 33 25 19 16 15 19 24 29 36 38 39 36 30 16 17
65 65 61 61 62 64 57 56 54 52 55 54 58 67 70 65 64 52 37 47 47 43 42 41 35 37 37 40 41 42 38 36 32 33 23 17 18 15 18 18 13 28 49 52
65 61 57 56 60 56 56 53 55 59 42 59 58 52 60 61 57 59 61 47 52 47 45 44 50 46 40 42 42 40 38 43 38 48 47 42 44 44 42 44 43 32 48 43
69 68 68 59 60 58 52 53 56 56 60 56 53 54 59 61 49 53 49 59 53 56 59 57 47 46 49 45 37 43 45 43 38 47 43 44 48 53 45 49 49 51 55 65
75 69 72 69 62 62 63 62 61 60 55 58 56 66 64 58 54 52 50 57 57 52 64 54 52 48 44 45 42 46 45 44 36 39 31 26 31 56 50 44 41 45 48 53
67 79 79 74 70 65 68 67 64 62 63 56 62 60 63 63 60 47 58 57 52 54 54 53 53 53 48 47 47 46 46 43 39 25 17 8 42 37 28 31 35 32 37 36
59 58 66 72 74 74 67 64 59 64 64 63 59 59 57 55 57 55 46 41 42 46 51 46 36 43 47 52 54 50 49 43 30 15 23 28 45 35 29 29 44 37 35 36
51 51 50 43 51 60 69 64 59 60 60 61 62 56 60 61 61 56 52 48 36 38 45 39 28 22 30 17 22 43 45 44 43 24 8 11 34 23 18 22 41 36 35 32
48 48 45 46 45 44 42 50 54 53 48 53 53 56 55 55 56 56 58 61 59 54 32 42 29 20 22 15 20 21 38 40 45 43 23 22 44 33 17 19 35 32 32 28
45 46 46 43 43 45 47 47 42 50 52 52 43 45 45 48 54 55 47 46 46 50 50 37 23 22 30 27 31 35 35 26 28 29 18 18 37 29 35 39 37 35 36 30
43 44 48 43 42 43 41 42 41 36 29 32 45 43 29 22 52 49 48 42 38 37 37 43 31 23 18 32 24 36 32 43 28 29 26 28 27 27 26 27 30 34 34 32
43 44 48 43 40 39 41 39 37 37 35 38 33 34 40 45 41 24 39 45 48 47 43 42 44 36 32 31 36 33 37 38 34 34 41 41 44 41 35 33 33 35 34 33
42 42 45 44 40 35 37 37 36 38 39 39 32 20 36 27 37 44 41 33 41 47 39 35 31 29 22 23 28 28 30 27 32 41 43 36 34 36 33 32 35 36 36 35
40 39 41 43 40 35 35 34 35 39 39 16 35 39 30 31 29 34 45 39 36 32 37 34 29 30 30 29 27 32 34 35 36 37 34 34 37 36 31 36 38 35 33 31
35 35 39 36 35 33 35 34 37 41 41 42 15 22 39 40 32 34 34 38 42 46 51 46 39 36 33 23 31 41 40 38 34 38 40 40 29 33 39 33 28 29 30 30
33 34 35 30 29 33 36 37 34 38 39 40 28 31 26 15 26 37 44 33 34 35 44 54 45 41 36 38 39 42 36 31 31 34 40 39 36 33 31 29 28 28 28 29
33 34 31 29 27 30 35 40 11 29 40 40 28 12 24 33 23 18 23 38 36 30 32 33 35 37 38 34 43 39 40 33 34 33 36 32 29 29 28 27 26 27 29 29
38 35 31 30 33 32 33 31 22 26 35 35 19 20 17 22 26 26 26 26 24 28 29 38 36 37 25 30 35 32 35 32 30 25 25 20 19 18 21 27 29 30 34 33
34 31 30 30 32 24 28 19 15 36 23 12 10 13 18 18 20 21 17 20 21 14 23 24 31 37 34 32 30 25 31 31 34 33 22 16 20 24 25 27 28 22 21 19
36 36 29 24 27 20 16 11 15 11 12 14 19 20 16 17 18 19 15 14 11 8 16 19 11 29 31 27 23 26 31 24 13 11 18 22 24 27 28 21 20 19 18 16
42 38 24 31 26 11 10 10 11 8 13 12 18 19 22 22 21 23 21 16 12 9 9 12 8 24 19 22 24 22 12 14 19 23 24 22 20 19 16 16 18 19 15 15
29 24 23 14 14 8 12 15 12 17 14 26 28 22 19 22 24 21 13 12 11 9 12 7 11 10 16 19 16 14 20 21 19 16 14 13 14 15 16 15 13 12 14 16
21 14 10 8 7 6 8 12 21 24 23 21 17 21 24 23 22 12 8 12 8 10 7 6 8 12 14 16 18 18 18 17 14 13 12 11 12 13 13 13 13 13 15 17
10 7 6 8 8 10 11 12 12 14 17 17 22 30 16 17 9 8 6 8 5 7 6 6 9 13 15 17 17 16 14 13 13 13 13 13 13 14 16 18 19 20 22 24
7 6 6 9 9 10 12 14 15 13 18 20 30 13 8 5 7 7 7 6 7 8 12 7 12 13 15 13 11 11 12 13 13 14 16 18 19 20 22 23 25 28 30 31
3 4 6 5 6 5 5 10 11 14 20 29 14 6 5 9 6 8 8 8 5 7 10 9 11 11 9 8 8 10 12 15 18 19 20 21 23 25 27 28 30 31 32 34

GFSNW_700_spd_219.txt.gz
Wind_Speed
52 50 46 46 54 53 48 54 58 58 46 55 60 72 68 59 43 36 40 39 41 41 30 33 36 28 27 19 24 26 26 16 20 26 25 26 25 26 23 21 10 25 19 50
59 62 59 53 52 58 59 59 60 60 56 60 69 69 66 63 54 52 46 46 45 45 40 33 38 43 37 35 31 26 32 25 11 10 21 24 32 38 39 35 35 30 17 32
54 58 57 50 59 60 58 64 61 54 52 67 63 63 62 62 63 60 52 52 48 48 46 44 44 37 29 33 38 40 40 39 32 32 16 10 15 21 21 27 25 30 51 60
56 56 55 59 58 60 66 69 51 62 55 56 58 61 61 59 58 53 55 47 51 53 50 50 56 53 47 38 36 40 42 48 43 45 40 38 43 46 43 42 41 33 57 53
58 57 57 59 67 64 70 68 68 60 63 60 57 59 69 60 55 56 46 55 52 47 56 56 52 49 51 52 40 47 43 45 41 50 44 42 48 59 45 47 48 51 58 72
67 65 61 58 57 56 58 62 68 57 52 57 59 66 68 64 58 62 58 56 51 58 71 62 58 55 54 51 44 48 46 46 40 47 33 31 35 52 48 48 48 51 56 50
63 63 61 61 63 63 63 61 63 62 59 54 67 63 62 58 58 58 56 52 54 56 52 53 57 57 56 54 56 53 53 50 43 34 21 9 43 45 32 32 38 35 41 38
60 61 63 69 68 69 67 65 59 60 62 60 60 62 59 53 52 59 57 54 55 53 52 54 43 41 48 53 53 56 55 53 33 19 26 31 47 37 33 34 54 46 36 34
61 58 58 60 73 70 61 68 64 61 61 62 59 58 62 59 54 57 61 55 43 44 45 46 40 23 32 19 28 48 49 56 46 24 7 11 33 23 14 19 47 32 30 32
58 58 56 53 54 58 63 58 58 54 56 58 54 56 57 56 57 57 59 60 60 53 39 38 30 26 30 18 22 25 37 45 48 43 26 24 46 36 21 18 41 37 36 34
53 51 51 49 45 41 38 42 55 51 55 50 54 45 49 54 55 52 51 50 54 54 50 40 29 22 30 31 39 38 38 29 30 30 20 18 41 29 36 45 41 37 33 32
43 42 46 42 43 41 41 40 35 26 32 41 54 44 47 49 45 52 48 49 43 40 41 42 39 29 28 34 30 36 31 45 35 31 28 32 29 30 26 26 29 32 32 36
43 41 40 43 44 41 41 38 37 37 34 37 39 39 38 29 49 47 41 38 46 48 51 43 39 37 31 36 38 38 40 40 43 44 56 50 43 40 40 38 36 35 37 37
37 38 40 44 45 42 39 40 38 33 31 30 31 35 32 34 45 44 40 38 37 40 36 34 34 30 23 26 31 29 35 30 38 44 53 47 37 35 35 34 33 35 35 37
34 34 38 42 43 41 38 36 37 34 31 8 32 28 29 20 33 47 40 41 37 25 31 34 29 30 29 21 23 32 43 40 36 38 33 28 31 29 30 31 31 33 35 34
31 31 36 38 39 40 38 37 36 31 31 34 29 13 19 39 32 31 40 38 36 42 42 36 33 32 25 16 24 33 31 29 29 30 32 32 35 36 35 32 34 35 39 39
30 31 34 35 35 39 41 30 33 29 28 32 33 31 28 13 30 34 29 33 31 30 31 32 32 34 29 33 33 43 40 39 36 33 30 35 34 34 34 36 38 42 43 36
29 31 30 28 34 31 37 32 28 25 30 32 24 16 20 27 25 19 37 37 34 31 32 31 26 31 34 34 48 45 38 31 33 32 34 34 34 34 36 33 34 34 30 23
30 29 29 30 30 32 36 35 32 23 31 34 21 33 26 17 21 24 20 21 21 27 28 30 33 32 20 27 29 26 29 30 31 30 31 37 35 34 31 29 24 19 17 18
32 33 32 31 35 34 28 24 24 29 36 25 38 22 23 15 20 26 22 16 16 13 20 23 30 39 38 39 40 38 34 31 26 28 31 34 34 28 22 12 12 14 20 27
40 37 30 26 26 19 18 9 16 15 13 19 24 26 23 20 16 21 13 8 8 7 12 13 11 29 30 27 27 30 29 27 27 29 26 27 22 10 9 13 20 23 25 23
35 31 20 17 19 8 8 9 6 5 6 9 18 15 18 19 20 14 12 11 7 8 9 7 11 30 26 21 18 22 26 30 32 28 25 17 7 13 19 23 22 19 20 21
24 19 13 8 11 5 6 9 9 9 10 12 13 16 21 20 20 12 10 11 9 7 8 10 26 26 22 19 18 24 29 28 19 9 6 13 18 19 18 18 18 18 20 18
17 12 9 6 6 5 5 6 11 15 15 14 12 19 18 17 17 11 7 8 6 6 7 15 24 20 20 17 23 26 16 11 13 12 13 14 15 15 16 16 17 18 18 18
10 7 4 7 7 6 10 10 11 11 12 13 17 22 18 13 8 7 7 5 7 7 14 20 13 13 12 14 12 11 11 14 13 13 13 13 13 14 16 19 20 21 22 23
9 9 8 12 19 21 20 16 15 13 14 17 17 17 7 10 7 8 8 6 7 7 13 9 8 9 11 14 15 13 13 15 15 14 14 14 16 19 21 23 25 26 28 29
7 9 17 17 15 15 15 17 17 15 15 20 14 8 6 6 5 10 9 14 16 10 8 7 7 9 11 12 12 12 12 12 13 15 17 19 20 22 24 25 28 30 32 34

GFSNW_700_spd_222.txt.gz
Wind_Speed
40 36 39 48 49 62 48 50 57 56 49 52 59 67 64 51 45 40 38 38 37 38 30 31 34 33 29 18 20 21 21 25 26 32 31 30 34 35 32 28 14 15 20 46
40 39 34 30 39 36 39 59 51 55 48 66 71 60 57 57 53 46 43 44 42 41 39 36 34 38 32 29 27 23 24 19 17 16 23 30 31 33 34 32 31 31 19 34
40 42 48 38 35 34 38 37 40 42 47 56 62 63 57 59 62 56 52 53 44 44 46 46 42 39 38 40 41 37 31 33 31 29 23 18 30 45 45 37 34 33 54 64
55 59 58 55 48 42 52 52 58 44 48 56 64 58 63 63 57 51 54 55 57 50 51 51 54 49 42 41 37 33 33 44 42 45 41 37 40 45 39 38 44 38 61 49
61 59 59 57 56 53 56 57 58 58 51 50 54 51 63 68 53 57 53 56 52 55 60 59 54 52 50 47 37 39 45 49 40 57 50 48 54 64 49 49 50 55 59 74
59 62 61 59 62 54 58 60 65 66 56 54 59 63 71 67 60 65 64 60 54 58 65 52 51 52 53 52 46 46 45 44 38 52 38 34 32 67 54 59 56 58 61 65
54 59 59 56 57 54 54 61 62 67 68 60 61 66 69 68 67 65 60 57 61 63 51 45 50 50 54 55 55 52 51 46 45 40 24 14 60 53 40 31 42 38 47 47
51 50 55 61 59 57 56 59 60 61 65 65 62 70 64 64 59 62 65 58 54 47 44 46 45 50 53 61 63 62 60 47 32 22 29 35 54 36 39 40 54 43 41 45
49 51 52 55 61 66 58 61 62 60 63 65 66 64 52 56 60 57 54 61 57 45 42 42 37 23 27 18 26 44 56 58 52 28 7 12 39 27 31 20 46 40 31 27
46 50 53 55 55 58 67 56 65 58 62 62 56 59 60 55 47 47 56 65 59 51 50 46 35 31 34 27 25 22 33 48 50 48 27 26 48 35 20 19 41 35 33 32
47 49 51 54 56 55 57 65 56 49 48 52 56 49 52 52 58 55 42 42 48 44 47 46 33 28 34 32 38 33 34 26 31 33 25 20 43 35 40 48 42 38 32 32
48 51 51 51 50 52 43 47 51 57 47 40 47 50 46 41 50 45 50 45 38 41 43 30 30 25 26 33 29 35 31 44 32 32 27 34 35 29 27 28 27 29 29 32
30 34 41 43 41 42 46 40 36 32 36 36 34 39 44 47 36 32 48 40 38 34 45 44 42 36 31 37 38 38 39 42 43 45 53 49 46 43 38 35 36 44 42 39
27 30 37 42 39 39 44 43 39 33 32 31 32 23 27 34 43 48 38 36 33 39 36 32 32 33 35 34 33 32 38 38 45 51 52 47 43 38 40 40 40 40 28 28
30 34 39 40 40 40 42 41 38 36 29 9 22 28 31 31 37 38 46 43 37 37 32 29 28 24 17 21 24 34 37 36 38 41 33 34 38 32 31 33 23 23 25 27
24 31 35 37 38 43 41 40 39 32 28 33 23 14 16 25 31 36 45 46 36 35 35 33 33 28 25 14 14 28 29 26 24 29 29 29 29 28 27 26 29 29 29 31
25 29 31 32 35 42 41 30 37 31 28 28 23 24 27 18 20 35 29 29 35 41 40 33 33 34 33 28 30 35 31 26 26 27 31 38 39 37 32 30 31 30 31 37
24 28 29 31 35 37 35 36 29 28 28 26 17 16 25 22 18 18 18 33 34 32 35 34 34 29 28 24 40 46 39 33 30 34 27 24 28 28 30 31 33 34 32 35
30 28 30 30 31 33 29 27 26 22 30 24 21 25 17 15 17 17 16 19 24 31 21 22 21 26 20 30 31 31 26 27 26 23 21 22 25 30 33 31 35 39 40 32
32 33 31 25 27 28 29 19 20 15 21 26 30 27 22 19 19 18 13 9 13 7 16 20 24 33 28 27 28 28 29 29 30 29 27 24 23 26 29 37 34 30 23 15
34 34 21 22 20 19 24 14 13 11 9 22 29 23 22 20 23 22 15 7 6 4 9 11 10 28 30 27 27 24 25 25 23 24 24 21 22 25 27 25 22 18 11 10
27 23 21 23 19 5 6 10 7 7 12 15 25 30 31 29 21 15 11 6 5 6 7 7 11 32 25 20 14 12 15 16 18 21 23 24 28 23 11 6 7 10 15 17
21 14 10 8 5 5 5 9 9 9 9 13 12 19 27 27 20 9 6 8 7 6 7 10 28 26 22 19 18 16 16 18 20 21 18 20 14 7 8 13 16 17 16 15
10 6 8 5 6 6 7 10 9 14 9 13 15 23 22 17 14 8 5 7 5 6 8 22 30 21 15 15 16 15 14 16 22 14 8 4 5 11 13 14 14 15 15 15
7 5 4 5 5 8 8 7 7 7 8 9 17 24 18 17 9 9 8 6 8 9 12 15 15 15 14 11 12 15 16 7 8 6 5 8 10 11 11 12 13 14 17 19
4 5 5 5 7 9 12 12 10 9 8 10 14 15 7 10 6 8 9 6 8 6 6 10 10 6 3 5 9 8 6 9 10 8 9 11 11 11 13 15 17 19 22 24
6 10 13 16 20 18 15 16 15 13 11 16 12 9 8 6 5 7 10 19 15 11 12 11 7 5 7 7 10 11 10 10 11 12 12 12 13 15 18 20 23 25 26 28